Regional Weather Roundup
Issued by NWS

Home | Current Version | Previous Version | Graphics & Text | Print | Product List | Glossary On
Versions: 1 2 3 4 5 6 7 8 9 10 11 12 13 14 15 16 17 18 19 20 21 22 23 24 25 26 27 28 29 30 31 32 33 34 35 36 37 38 39 40 41 42 43 44 45 46 47 48 49 50
000
ASUS43 KDTX 210310
RWRMI
MICHIGAN HOURLY REGIONAL WEATHER ROUNDUP
NATIONAL WEATHER SERVICE DETROIT/PONTIAC MI
1000 PM EST MON NOV 20 2017

NOTE: "FAIR" INDICATES FEW OR NO CLOUDS BELOW 12,000 FEET WITH NO
SIGNIFICANT WEATHER AND/OR OBSTRUCTION TO VISIBILITY.

MIZ047>049-052>055-059>063-066>070-074>076-081>083-210400-
SOUTHEAST LOWER MICHIGAN

CITY           SKY/WX    TMP DP  RH WIND       PRES   REMARKS
ADRIAN         CLEAR     39  27  62 SW22      29.84F WCI  29
ALMA           CLOUDY    42  31  62 SW14G21   29.71S
ANN ARBOR      CLEAR     39  27  62 S15G24    29.82F WCI  31
BAD AXE        CLOUDY    42  29  59 SW17G29   29.70R
CARO           CLOUDY    43  29  58 S17G25    29.71R
DETROIT CITY   CLEAR    N/A N/A N/A SW23G30   29.83F
DETROIT        PTCLDY    41  27  57 S16       29.84F
FLINT          CLEAR     42  26  53 SW16G26   29.76S
GROSSE ILE     CLEAR     42  29  61 SW16G24   29.84F
HILLSDALE      CLEAR     37  27  65 S13G21    29.81S WCI  29
HOWELL         CLEAR     41  27  57 S14G23    29.77F

CITY           SKY/WX    TMP DP  RH WIND       PRES   REMARKS
JACKSON        CLEAR     41  25  53 S13G22    29.80S
LAMBERTVILLE   CLEAR     42  27  54 S12G21    29.86F
LANSING        CLEAR     43  28  55 SW21G28   29.76R
LAPEER         FAIR      42  27  54 SW17G25   29.75S
MASON          CLEAR     43  27  53 S7        29.78R
MONROE         CLEAR     42  25  51 S14G24    29.84F
MT. CLEMENS    PTCLDY    42  28  57 SW18G25   29.79F
PONTIAC        PTCLDY    40  28  62 S15G23    29.78F WCI  32
PORT HOPE        N/A     42  29  59 SW9G20    29.65F
PORT HURON     CLOUDY    41  28  60 S14G22    29.79S
TRI CITIES     CLOUDY    45  31  58 SW22G29   29.70S
MIDLAND        FAIR      44  31  59 S15G28    29.68S
TROY           CLEAR     45  25  45 SW17G28   29.82F
SAGINAW HB     CLOUDY    43  30  61 SW20G25   29.70S
$$
MIZ043>046-050>051-056>058-064>065-071>073-077>080-210400-
SOUTHWEST LOWER MICHIGAN

CITY           SKY/WX    TMP DP  RH WIND       PRES   REMARKS
BATTLE CREEK   CLEAR     42  27  55 SW17G28   29.79R
BENTON HARBOR  CLEAR     44  28  53 S10G24    29.78S
BIG RAPIDS     CLEAR     44  33  64 SW14G26   29.64F
COLDWATER      CLEAR     42  23  48 SW16G22   29.81S
FREMONT        FAIR      46  36  68 SW23G32   29.66F
HOLLAND        CLEAR     46  31  55 SW26G37   29.73S
GRAND RAPIDS   PTCLDY    44  31  60 S17G23    29.73S
IONIA          FAIR      43  28  55 SW22G32   29.72F
KALAMAZOO      CLEAR     44  24  45 SW21G29   29.79S
LUDINGTON      CLOUDY    47  38  70 SW24G33   29.58F
MARSHALL       CLEAR     41  25  52 SW14G22   29.80R
MOUNT PLEASANT PTCLDY    45  30  55 SW16G25   29.66F
MUSKEGON       PTCLDY    48  36  63 S24G39    29.68F
SOUTH HAVEN    CLEAR     46  28  50 S13G25    29.76F
$$
MIZ016>042-210400-
NORTHERN LOWER MICHIGAN

CITY           SKY/WX    TMP DP  RH WIND       PRES   REMARKS
ALPENA         MOCLDY    41  31  67 S9        29.57F
BEAVER ISLAND  MOCLDY    47  39  72 S16G28    29.43F
BELLAIRE       CLOUDY    46  38  73 S9G17     29.52F
CADILLAC       CLEAR     43  35  73 SW18G28   29.57F
CHARLEVOIX     PTCLDY    46  36  68 S15G28    29.50F
FRANKFORT      CLOUDY    49  39  67 S20G33    29.52F
GAYLORD        CLEAR     41  32  70 SW22G30   29.51F
GRAYLING       PTCLDY    42  32  68 SW10G17   29.56F
HARBOR SPRINGS CLEAR     45  35  67 SW16G26   29.48F
MANISTEE       CLOUDY    49  37  63 S15G31    29.55F
OSCODA         CLEAR     41  30  66 SW16G23   29.62F
PELLSTON       CLEAR     44  33  65 SW12G28   29.48F
ROGERS CITY    CLOUDY    41  31  68 SW13G18   29.53F
TRAVERSE CITY  CLOUDY    47  35  63 S12G22    29.52F
$$
MIZ007>008-015-210400-
EASTERN UPPER MICHIGAN

CITY           SKY/WX    TMP DP  RH WIND       PRES   REMARKS
KINROSS        PTCLDY    39  34  82 S9        29.46F WCI  33
MACKINAC ISLAN PTCLDY    42  33  70 S10G17    29.47F
NEWBERRY       PTCLDY    42  40  94 S14G25    29.39F
S. S. MARIE    CLOUDY    39  34  82 SE8       29.46F WCI  33
MUNISING         N/A     43  36  76 S10G20    29.31F
$$
MIZ004>006-011>014-085-210400-
CENTRAL UPPER MICHIGAN

CITY           SKY/WX    TMP DP  RH WIND       PRES   REMARKS
MANISTIQUE     CLOUDY    46  37  71 SW18G24   29.38F
ESCANABA       CLOUDY    44  37  76 SW14G22   29.38F
MENOMINEE      PTCLDY    45  33  63 SW14G21   29.41F
SAWYER-GWINN   CLEAR     34  32  93 S15       29.32F WCI  24
$$
MIZ001>003-009>011-084-210400-
WESTERN UPPER MICHIGAN

CITY           SKY/WX    TMP DP  RH WIND       PRES   REMARKS
IRON MOUNTAIN  CLOUDY    36  28  73 S6        29.34F WCI  31
HOUGHTON       CLOUDY    36  28  73 SW8       29.23F WCI  30
COPPER HARBOR    N/A     41  30  65 W9        29.23F
IRONWOOD       CLEAR     41  29  62 SW18G25   29.30R
$$

ABBREVIATIONS USED IN REMARKS
   TC - TEMPERATURE IN CELSIUS
  WCI - WIND CHILL INDEX
   HX - HEAT INDEX
  VSB - VISIBILITY





USA.gov is the U.S. government's official web portal to all federal, state and local government web resources and services.